TimeCDT,TemperatureF,Dew PointF,Humidity,Sea Level PressureIn,VisibilityMPH,Wind Direction,Wind SpeedMPH,Gust SpeedMPH,PrecipitationIn,Events,Conditions,WindDirDegrees,DateUTC
12:53 AM,64.0,61.0,90,29.98,7.0,Calm,Calm,-,N/A,,Clear,0,2013-07-05 05:53:00
1:53 AM,63.0,61.0,93,29.97,6.0,Calm,Calm,-,N/A,,Clear,0,2013-07-05 06:53:00
2:53 AM,62.1,60.1,93,29.97,5.0,Calm,Calm,-,N/A,,Clear,0,2013-07-05 07:53:00
3:53 AM,60.1,59.0,96,29.97,4.0,Calm,Calm,-,N/A,,Clear,0,2013-07-05 08:53:00
4:53 AM,60.1,57.9,93,29.98,4.0,Calm,Calm,-,N/A,,Clear,0,2013-07-05 09:53:00
5:53 AM,59.0,57.0,93,29.99,3.0,Calm,Calm,-,N/A,,Clear,0,2013-07-05 10:53:00
6:19 AM,57.2,57.2,100,30.02,2.0,Calm,Calm,-,N/A,,Clear,0,2013-07-05 11:19:00
6:38 AM,57.2,57.2,100,30.02,3.0,Calm,Calm,-,N/A,,Clear,0,2013-07-05 11:38:00
6:53 AM,59.0,57.0,93,30.00,3.0,Calm,Calm,-,N/A,,Clear,0,2013-07-05 11:53:00
7:53 AM,66.0,61.0,84,30.01,7.0,Calm,Calm,-,N/A,,Clear,0,2013-07-05 12:53:00
8:53 AM,73.0,63.0,71,30.02,9.0,Calm,Calm,-,N/A,,Clear,0,2013-07-05 13:53:00
9:53 AM,80.1,63.0,56,30.01,10.0,Calm,Calm,-,N/A,,Clear,0,2013-07-05 14:53:00
10:53 AM,82.9,62.1,49,30.00,10.0,Calm,Calm,-,N/A,,Clear,0,2013-07-05 15:53:00
11:53 AM,84.9,57.9,40,30.00,10.0,Calm,Calm,-,N/A,,Clear,0,2013-07-05 16:53:00
12:53 PM,88.0,55.9,34,29.99,10.0,Variable,5.8,-,N/A,,Clear,0,2013-07-05 17:53:00
1:53 PM,89.1,55.0,31,29.98,10.0,Variable,3.5,-,N/A,,Clear,0,2013-07-05 18:53:00
2:53 PM,90.0,52.0,27,29.96,10.0,Calm,Calm,-,N/A,,Scattered Clouds,0,2013-07-05 19:53:00
3:53 PM,91.0,57.0,32,29.94,10.0,ENE,4.6,-,N/A,,Clear,70,2013-07-05 20:53:00
4:53 PM,89.1,57.9,35,29.92,10.0,Calm,Calm,-,N/A,,Mostly Cloudy,0,2013-07-05 21:53:00
5:53 PM,82.9,63.0,51,29.92,10.0,Calm,Calm,-,N/A,,Partly Cloudy,0,2013-07-05 22:53:00
6:53 PM,84.0,63.0,49,29.92,10.0,Calm,Calm,-,N/A,,Clear,0,2013-07-05 23:53:00
7:53 PM,81.0,62.1,52,29.91,10.0,Calm,Calm,-,N/A,,Clear,0,2013-07-06 00:53:00
8:53 PM,77.0,61.0,58,29.91,10.0,Calm,Calm,-,N/A,,Clear,0,2013-07-06 01:53:00
9:53 PM,73.9,59.0,59,29.92,10.0,Calm,Calm,-,N/A,,Clear,0,2013-07-06 02:53:00
10:53 PM,73.0,57.9,59,29.95,10.0,Calm,Calm,-,N/A,,Clear,0,2013-07-06 03:53:00
11:53 PM,70.0,59.0,68,29.96,10.0,Calm,Calm,-,N/A,,Clear,0,2013-07-06 04:53:00